sat.trackr.live / text

‹ back to catalog

STARLINK-2410

NORAD 47825 · 2021-018AQ

PAYLOAD ACTIVE UNKNOWN

§ Identity

Operator
Country
US
Launch date
2021-03-11
Launch site
AFETR
Launch vehicle
Mass (kg)
RCS (m²)

Purposes: comms

External: N2YO · Heavens-Above · Gunter

§ Orbital elements

Epoch: 2026-09-20T01:26:07.863936Z

Period
94.01 min
Inclination
53.1617°
Eccentricity
0.0001404
Mean motion
15.31695839 rev/d
Perigee alt
469.8 km
Apogee alt
471.7 km
Semi-major
6,848.9 km
B*
-2.9207e-5
RAAN
58.2706°
Arg perigee
76.7100°
Mean anomaly
283.4058°
Rev number
30,651

§ Raw data

STARLINK-24101 47825U 21018AQ  26263.05981324 -.00001271  00000+0 -29207-4 0  99952 47825  53.1617  58.2706 0001404  76.7100 283.4058 15.31695839306514

JSON: /api/v1/satellites/47825 · /tle

For live sub-satellite position, see the globe view (requires WebGL).

§ Visibility from observer

Set your observer location to see the next 7 days of passes ≥ 10°. The values pass through the URL so the page stays shareable.

No JS? Fill the form by hand. The geolocation button needs JavaScript.